Location: Nebel
(54.6502°N, 8.3475°E)
Time: 13:00:17
(UTC+01:00)

N. Korean satellite - Visible Passes

Search period start: 29 January 2023 00:00
Search period end: 08 February 2023 00:00
Orbit: 407 x 444 km, 97.3° (Epoch: 28 January)

Date Brightness Start Highest point End Pass type
(mag) Time Alt. Az. Time Alt. Az. Time Alt. Az.
29 Jan 8.6 05:18:31 10° NE 05:21:12 24° E 05:23:54 10° SSE visible
29 Jan 7.1 06:50:42 10° N 06:53:31 29° WNW 06:56:22 10° SW visible
30 Jan 6.1 06:08:05 10° NNE 06:11:17 88° WNW 06:14:31 10° SSW visible
30 Jan 8.4 07:42:23 10° NW 07:43:02 10° NW 07:43:42 10° WNW visible
31 Jan 8.3 05:25:54 10° NNE 05:28:46 29° E 05:31:38 10° SSE visible
31 Jan 7.3 06:58:18 10° N 07:00:59 25° WNW 07:03:41 10° WSW visible
01 Feb 9.8 04:45:06 10° ENE 04:45:57 11° E 04:46:48 10° ESE visible
01 Feb 6.1 06:15:27 10° N 06:18:40 73° WNW 06:21:53 10° SSW visible
02 Feb 7.9 05:33:03 10° NNE 05:36:03 34° E 05:39:03 10° SSE visible
02 Feb 7.5 07:05:39 10° NNW 07:08:11 21° WNW 07:10:42 10° WSW visible
03 Feb 9.7 04:51:34 10° ENE 04:53:08 13° E 04:54:40 10° ESE visible
03 Feb 6.2 06:22:34 10° N 06:25:45 60° WNW 06:28:57 10° SSW visible
04 Feb 7.6 05:39:56 10° NNE 05:43:02 41° E 05:46:08 10° S visible
04 Feb 7.7 07:12:44 10° NNW 07:15:05 19° WNW 07:17:26 10° WSW visible
04 Feb 9.4 17:47:16 10° SW 17:49:32 18° W 17:51:49 10° NW visible
05 Feb 9.5 04:58:04 10° NE 05:00:01 15° E 05:01:58 10° SE visible
05 Feb 6.4 06:29:24 10° N 06:32:33 50° WNW 06:35:43 10° SSW visible
06 Feb 7.2 05:46:34 10° NNE 05:49:43 49° E 05:52:55 10° S visible
06 Feb 7.9 07:19:33 10° NNW 07:21:42 17° WNW 07:23:50 10° WSW visible
06 Feb 9.5 17:54:11 10° SW 17:56:12 16° W 17:58:12 10° NW visible
07 Feb 9.3 05:04:21 10° NE 05:06:37 17° E 05:08:53 10° SE visible
07 Feb 6.6 06:35:58 10° N 06:39:04 42° WNW 06:42:10 10° SW visible
